Hourly Data Report for October 01, 2014

All times are specified in Local Standard Time (LST). Add 1 hour to adjust for Daylight Saving Time where and when it is observed.

CLYDE RIVER A
NUNAVUT

70°29'09.000" N
68°31'01.000" W
26.50 m
2400804
71090
YCY

Download Data

Hourly Data (October 2014)
Hourly Data Report for October 1, 2014
Temp Definition
°C
Dew Point Temp Definition
°C
Rel Hum Definition
%
Wind Dir Definition
10's deg

Wind Spd Definition
km/h
Visibility Definition
km
Stn Press Definition
kPa
Hmdx Definition


Wind Chill Definition


Weather Definition


TIME
00:00 Legend Double Dagger -10.0 -15.3 66 29 22 16.1 100.08   -18 LegendNANA
01:00 Legend Double Dagger -8.7 -14.5 63 30 22 16.1 100.09   -17 LegendNANA
02:00 Legend Double Dagger -8.9 -14.6 64 28 21 16.1 100.12   -17 LegendNANA
03:00 Legend Double Dagger -8.4 -13.6 66 27 15 16.1 100.15   -15 LegendNANA
04:00 Legend Double Dagger -7.1 -13.3 62 28 18 16.1 100.18   -14 LegendNANA
05:00 Legend Double Dagger -6.6 -11.9 66 23 9 LegendMM 100.19   -11 LegendNANA
06:00
07:00 Legend Double Dagger -6.5 -12.3 64 29 30 16.1 100.17   -15 LegendNANA
08:00 Legend Double Dagger -5.5 -11.2 64 29 26 16.1 100.18   -13 LegendNANA
09:00 Legend Double Dagger -4.3 -11.0 60 29 26 16.1 100.17   -12 LegendNANA
10:00 Legend Double Dagger -4.4 -11.0 60 28 28 16.1 100.18   -12 LegendNANA
11:00
12:00
13:00 Legend Double Dagger -3.5 -9.6 63 28 24 16.1 100.21   -10 LegendNANA
14:00 Legend Double Dagger -3.3 -8.8 66 28 24 16.1 100.21   -10 LegendNANA
15:00 Legend Double Dagger -3.4 -8.5 68 29 24 16.1 100.23   -10 LegendNANA
16:00 Legend Double Dagger -3.4 -8.1 70 28 21 16.1 100.25   -10 Snow
17:00 Legend Double Dagger -3.6 -7.6 74 28 17 16.1 100.25   -9 LegendNANA
18:00 Legend Double Dagger -3.8 -7.8 74 28 15 16.1 100.26   -9 LegendNANA
19:00 Legend Double Dagger -3.6 -8.2 70 29 21 16.1 100.26   -10 LegendNANA
20:00 Legend Double Dagger -3.7 -7.8 73 28 22 16.1 100.27   -10 LegendNANA
21:00 Legend Double Dagger -4.0 -7.6 76 28 18 16.1 100.28   -10 LegendNANA
22:00 Legend Double Dagger -3.9 -8.1 73 29 21 16.1 100.28   -10 LegendNANA
23:00 Legend Double Dagger -4.3 -8.1 75 28 21 16.1 100.27   -11 LegendNANA

Notes on Data Quality.

Legend

  • E = Estimated
  • M = Missing
  • NA = Not Available
  • ‡ = Partner data that is not subject to review by the National Climate Archives
Date modified: